NOAA 16 DEB, 42410

Orbit data source: Space-Track

NOAA 16 DEB, 42410 is space debris in SSO originally from a launch on Thu, 21 Sep 2000 UTC launched from the Air Force Western Test Range (AFWTR). Debris objects in space refer to the collection of defunct objects orbiting the Earth. Examples of debris include non-operational satellites, rocket bodies, and fragments generated from explosions, collisions, or faulty payload assembly.

Loading next visibility...
Identifier
42410, 2000-055TE
Orbit
SSO
Country
Flag of USUS
Related business
Manufacturer
Unknown
Mission
Spacecraft
Bus & Motor
Unknown
Mass
Unknown
Launch date (UTC)
2000-09-21 (25 years ago)
Launch vehicle
Unknown
Launch site
Air Force Western Test Range (AFWTR)
Object type
Payload
Rocket body
Debris
Shape & HBR
Unknown shape, 0.1 m
Radar Cross Section
Small (<0.1 m²)

Expand to show TLE details & history
Last TLE update: 1 day ago

TLE from 1 day ago
0 NOAA 16 DEB
1 42410U 00055TE  25292.84337031  .00020439  00000-0  52680-2 0  9991
2 42410  98.8174  68.5252 0031092 102.8250 257.6420 14.49770960501864
Epoch: 2025-10-19T20:14Z
TLE epoch observation values (Epoch: 2025-10-19T20:14:27.194Z)
Latitude
0.00001°
Longitude
96.35767°
Altitude
734.142 km
Speed
7.485 km/s
True Right ascension
04h 34m 06s
True Declination
0° 00' 00"
Sunlit
Object was in full shadow at epoch
Visualization orbit readout
Latitude
Unknown
Longitude
Unknown
Altitude
Unknown
Speed
Unknown
Apparent Right ascension
Unknown
Apparent Declination
Unknown
Sunlit
N/A
Visualization observer readout
Local Sidereal Time
16:18:44
Azimuth
Unknown
Elevation
Unknown
Doppler factor
Unknown
Orbital elements
Apogee altitude
745.601 km
Perigee altitude
701.44 km
Semi-major axis
7,101.658 km
Eccentricity
0.00311
Inclination
98.8174°
RAAN
68.5252°
Arg. of periapsis
102.825°
True anomaly
257.29426°
Mean anomaly
257.642°
Eccentric anomaly
257.4681°
Mean motion
3.62663 °/min
Orbital period
99.27 mins
BSTAR
0.005268
Loading maneuver chart data...
Computing Atmospheric mass density...
Loading historical data...
Loading historical data...
Loading historical data...
Loading historical data...
Loading historical data...
Loading historical data...
Loading historical data...

Documentation

Showing up to 5 results
|